Location: Cactus School
(34.5700°N, 118.0931°W)
Time: 09:40:45
(UTC-07:00)

S-56A Canister/Altair - Pass Details

Date: 17 April 2024
Orbit: 638 x 2488 km, 38.9° (Epoch: 29 May)

Event Time Altitude Azimuth Distance (km) Brightness Sun altitude
Rises 17:18:06 0° 229° (SW) 3,050 11.4 25.4°
Reaches altitude 10° 17:20:14 10° 224° (SW) 2,238 10.8 25.0°
Maximum altitude 17:25:12 53° 148° (SSE) 1,097 8.4 23.9°
Drops below altitude 10° 17:32:15 10° 73° (ENE) 3,145 10.2 22.5°
Sets 17:35:46 0° 70° (ENE) 4,421 10.9 21.8°
